Liverpool, United Kingdom

1:06 PM BST on June 22, 2017 (GMT +0100)
Liverpool

Weather History for EGGP - June, 2014

Change the Weather History Date:

Sunday, June 8, 2014

  Actual Average Record
Temperature  
Mean Temperature 61 °F -  
Max Temperature 69 °F 64 °F 77 °F (2006)
Min Temperature 53 °F 52 °F 46 °F (1999)
Degree Days  
Heating Degree Days 4    
Growing Degree Days 11 (Base 50)    
Moisture  
Dew Point 53 °F    
Average Humidity 76    
Maximum Humidity 94    
Minimum Humidity 53    
Precipitation  
Precipitation 0.00 in - - ()
Sea Level Pressure  
Sea Level Pressure 30.01 in    
Wind  
Wind Speed 8 mph ()    
Max Wind Speed 14 mph    
Max Gust Speed -    
Visibility 6.2 miles    
Events      
Averages and records for this station are not official NWS values.
T = Trace of Precipitation, MM = Missing Value Source: Averaged Metar Reports

Daily Weather History Graph

Daily Weather History Graph

Search for Another Location

Airport or City:

Trip Planner

Search our weather history database for the weather conditions in past years. The results will help you decide how hot, cold, wet, or windy it might be!

Date:

Astronomy

Jun. 08, 2014 Rise Set
Actual Time 4:45 AM BST 9:36 PM BST
Civil Twilight 3:54 AM BST 10:27 PM BST
Nautical Twilight 2:28 AM BST 11:54 PM BST
Astronomical Twilight Sun does not set Sun does not set
Moon 4:00 PM BST (6/8) 2:15 AM BST (6/8)
Length of Visible Light 18h 33m
Length of Day
16h 50m
Waxing Gibbous, 75% of the Moon is Illuminated
Jun 8
Waxing Gibbous
Jun 13
Full
Jun 19
Last Quarter
Jun 27
New
Jul 5
First Quarter

Hourly Weather History & Observations

Time (BST) Temp. Dew Point Humidity Pressure Visibility Wind Dir Wind Speed Gust Speed Precip Events Conditions
12:20 AM 57.2 °F 53.6 °F 88% 29.95 in 6.2 mi South 8.1 mph - N/A   Partly Cloudy
12:50 AM 57.2 °F 53.6 °F 88% 29.95 in 6.2 mi South 9.2 mph - N/A   Partly Cloudy
1:20 AM 57.2 °F 53.6 °F 88% 29.95 in 6.2 mi SSW 8.1 mph - N/A   Partly Cloudy
1:50 AM 55.4 °F 53.6 °F 94% 29.95 in 6.2 mi South 9.2 mph - N/A   Partly Cloudy
2:20 AM 55.4 °F 51.8 °F 88% 29.95 in 6.2 mi SSE 5.8 mph - N/A   Partly Cloudy
2:50 AM 55.4 °F 51.8 °F 88% 29.98 in 6.2 mi SSE 6.9 mph - N/A   Partly Cloudy
3:20 AM 55.4 °F 51.8 °F 88% 29.98 in 6.2 mi South 8.1 mph - N/A   Partly Cloudy
3:50 AM 53.6 °F 51.8 °F 94% 29.98 in 6.2 mi SSE 5.8 mph - N/A   Partly Cloudy
4:20 AM 53.6 °F 51.8 °F 94% 29.98 in 6.2 mi SSE 6.9 mph - N/A   Partly Cloudy
4:50 AM 53.6 °F 51.8 °F 94% 29.95 in 6.2 mi SSE 10.4 mph - N/A   Partly Cloudy
5:20 AM 53.6 °F 51.8 °F 94% 29.98 in 6.2 mi SSE 11.5 mph - N/A   Partly Cloudy
5:50 AM 53.6 °F 51.8 °F 94% 29.98 in - SSE 8.1 mph - N/A   Clear
6:20 AM 55.4 °F 51.8 °F 88% 29.98 in - South 4.6 mph - N/A   Clear
6:50 AM 57.2 °F 53.6 °F 88% 29.98 in - South 5.8 mph - N/A   Clear
7:20 AM 59.0 °F 53.6 °F 82% 29.98 in - SSE 5.8 mph - N/A   Clear
7:50 AM 59.0 °F 55.4 °F 88% 30.01 in - SSE 8.1 mph - N/A   Clear
8:20 AM 59.0 °F 55.4 °F 88% 30.01 in - South 9.2 mph - N/A   Clear
8:50 AM 62.6 °F 55.4 °F 77% 30.01 in 6.2 mi SSE 9.2 mph - N/A   Partly Cloudy
9:20 AM 62.6 °F 53.6 °F 72% 30.01 in 6.2 mi SSE 9.2 mph - N/A   Partly Cloudy
9:50 AM 62.6 °F 55.4 °F 77% 30.01 in 6.2 mi South 11.5 mph - N/A   Partly Cloudy
10:20 AM 62.6 °F 55.4 °F 77% 30.01 in 6.2 mi South 9.2 mph - N/A   Scattered Clouds
10:50 AM 64.4 °F 55.4 °F 73% 30.01 in 6.2 mi South 10.4 mph - N/A   Scattered Clouds
11:20 AM 66.2 °F 53.6 °F 64% 30.01 in 6.2 mi South 13.8 mph - N/A   Partly Cloudy
11:50 AM 66.2 °F 55.4 °F 68% 30.01 in 6.2 mi South 11.5 mph - N/A   Scattered Clouds
12:20 PM 66.2 °F 53.6 °F 64% 30.01 in 6.2 mi South 12.7 mph - N/A   Scattered Clouds
12:50 PM 66.2 °F 55.4 °F 68% 30.01 in 6.2 mi South 10.4 mph - N/A   Scattered Clouds
1:20 PM 66.2 °F 55.4 °F 68% 30.01 in 6.2 mi South 10.4 mph - N/A   Scattered Clouds
1:50 PM 68.0 °F 53.6 °F 60% 30.01 in 6.2 mi South 12.7 mph - N/A   Partly Cloudy
2:20 PM 68.0 °F 53.6 °F 60% 30.01 in 6.2 mi South 13.8 mph - N/A   Partly Cloudy
2:50 PM 69.8 °F 51.8 °F 53% 30.01 in 6.2 mi South 10.4 mph - N/A   Partly Cloudy
3:20 PM 68.0 °F 51.8 °F 56% 30.01 in 6.2 mi South 11.5 mph - N/A   Partly Cloudy
3:50 PM 69.8 °F 51.8 °F 53% 30.01 in 6.2 mi South 12.7 mph - N/A   Partly Cloudy
4:20 PM 68.0 °F 53.6 °F 60% 30.01 in 6.2 mi South 9.2 mph - N/A   Scattered Clouds
4:50 PM 64.4 °F 55.4 °F 73% 30.01 in 6.2 mi South 9.2 mph - N/A   Partly Cloudy
5:20 PM 64.4 °F 57.2 °F 77% 30.01 in 6.2 mi SSE 12.7 mph - N/A   Partly Cloudy
6:20 PM 66.2 °F 55.4 °F 68% 30.01 in 6.2 mi South 6.9 mph - N/A   Partly Cloudy
6:50 PM 66.2 °F 51.8 °F 60% 30.04 in 6.2 mi SSW 13.8 mph - N/A   Partly Cloudy
7:20 PM 64.4 °F 51.8 °F 64% 30.04 in 6.2 mi SSW 12.7 mph - N/A   Partly Cloudy
7:50 PM 66.2 °F 50.0 °F 56% 30.04 in 6.2 mi SSW 12.7 mph - N/A   Partly Cloudy
8:20 PM 62.6 °F 51.8 °F 68% 30.04 in - SSW 11.5 mph - N/A   Clear
8:50 PM 62.6 °F 51.8 °F 68% 30.04 in - SSW 8.1 mph - N/A   Clear
9:20 PM 60.8 °F 51.8 °F 72% 30.04 in - SSW 6.9 mph - N/A   Clear
9:50 PM 59.0 °F 53.6 °F 82% 30.04 in - SSE 5.8 mph - N/A   Clear
10:20 PM 59.0 °F 51.8 °F 77% 30.06 in - South 12.7 mph - N/A   Clear
10:50 PM 57.2 °F 51.8 °F 82% 30.06 in - South 11.5 mph - N/A   Clear
11:20 PM 57.2 °F 51.8 °F 82% 30.06 in - South 11.5 mph - N/A   Clear
11:50 PM 57.2 °F 53.6 °F 88% 30.06 in - South 8.1 mph - N/A   Clear